Regional Weather Roundup
Issued by NWS

Home | Current Version | Previous Version | Text Only | Print | Product List | Glossary On
Versions: 1 2 3 4 5 6 7 8 9 10 11 12 13 14 15 16 17 18 19 20 21 22 23 24 25 26 27 28 29 30 31 32 33 34 35 36 37 38 39 40 41 42 43 44 45 46 47 48 49 50
000
ASUS44 KFWD 242115
RWRTX
NORTH TEXAS HOURLY WEATHER ROUNDUP
NATIONAL WEATHER SERVICE FORT WORTH TX
400 PM CDT FRI MAR 24 2017

NOTE: "FAIR" INDICATES FEW OR NO CLOUDS BELOW 12,000 FEET WITH NO
SIGNIFICANT WEATHER AND/OR OBSTRUCTIONS TO VISIBILITY.

TXZ118-119-242200-
DALLAS/FORT WORTH METROPLEX

CITY           SKY/WX    TMP DP  RH WIND       PRES   REMARKS
DFW AIRPORT    MOSUNNY   77  49  37 S21G29    29.76F
DALLAS LOVE    MOSUNNY   74  53  48 S15       29.79F
FTW MEACHAM    SUNNY     79  51  37 S18G25    29.75F
DAL-EXECUTIVE  SUNNY     72  55  55 S10G18    29.78F
FTW-ALLIANCE   MOSUNNY   79  50  36 S16G29    29.74F
FTW-NAS-JRB    MOSUNNY   78  54  43 S20G29    29.76
FTW-SPINKS     SUNNY     77  54  44 S13G22    29.80F
ARLINGTON      SUNNY     74  51  44 S14G26    29.78F
GRAND PRAIRIE  SUNNY     73  52  46 S12G23    29.80F
ADDISON        SUNNY     72  55  56 S14G20    29.78F
MESQUITE       SUNNY     68  57  68 SE15      29.79F
LANCASTER      SUNNY     70  56  62 S18G24    29.79F
$$

TXZ091>094-102>105-117-120-121-131>134-242200-
NORTH CENTRAL TEXAS

CITY           SKY/WX    TMP DP  RH WIND       PRES   REMARKS
SHRMAN/DENISON SUNNY     71  51  48 S16       29.77F
GAINESVILLE    SUNNY     74  51  44 S21G26    29.74F
BOWIE          SUNNY     81  27  14 SW15G35   29.73F
BRIDGEPORT     SUNNY     81  31  16 SW20G31   29.76S
DECATUR        SUNNY     81  25  12 SW24G37   29.74S
DENTON         SUNNY     77  54  44 S18G28    29.75F
MCKINNEY       SUNNY     69  58  67 S21       29.78F
BONHAM         SUNNY     68  57  68 S16G26    29.79F
GREENVILLE       N/A     63  59  88 S9        29.82F
ROCKWALL       SUNNY     69  58  66 S13G21    29.79F
TERRELL        MOSUNNY   66  59  78 S14       29.82F
WAXAHACHIE     SUNNY     73  57  58 S13G20    29.80F
CLEBURNE       SUNNY     75  59  57 S14G21    29.80F
GRANBURY       SUNNY     83  33  16 SW23G30   29.78F
$$

TXZ083>090-098>101-113>116-127>130-139>142-154-155-242200-
WESTERN NORTH TEXAS

CITY           SKY/WX    TMP DP  RH WIND       PRES   REMARKS
WICHITA FALLS  MOSUNNY   78  30  17 SW30G41   29.69F
WF-KICKAPOO    MOSUNNY   78  30  17 SW23G37   29.71F
VERNON         PTSUNNY   71  33  24 W25       29.69R
ABILENE        SUNNY     75  30  19 SW28G37   29.81F
ABILENE-DYESS  SUNNY     76  35  22 W26G37    29.80F
GRAHAM         SUNNY     80  34  19 SW18G31   29.74F
BRECKENRIDGE   SUNNY     80  28  15 W24G32    29.78F
CISCO          SUNNY     77  30  18 W31G43    29.82S
RANGER         SUNNY     77  32  19 W24G36    29.81F
MINERAL WELLS  SUNNY     82  29  14 SW24G43   29.76S
STEPHENVILLE   SUNNY     81  26  13 SW22G33   29.83S
COMANCHE       SUNNY     79  35  20 SW16G29   29.82F
BROWNWOOD      SUNNY     79  28  15 W22G32    29.84S
COLEMAN        SUNNY     78  28  16 W23G35    29.86F
$$

TXZ143>147-156>162-174-175-242200-
CENTRAL TEXAS

CITY           SKY/WX    TMP DP  RH WIND       PRES   REMARKS
WACO           SUNNY     76  57  51 S16       29.82F
WACO-TSTC      SUNNY     73  59  60 S7        29.84F
WACO-MCGREGOR  SUNNY     77  58  51 S16G24    29.82F
HILLSBORO      SUNNY     74  56  53 S18G26    29.79F
CORSICANA      PTSUNNY   68  62  81 S13       29.86F
MEXIA          RAIN      65  61  86 S14       29.85F
HEARNE         CLOUDY    73  70  89 S16G24    29.89F
CAMERON        CLOUDY    73  63  71 SW8       29.86F
TEMPLE         SUNNY     76  62  62 S13       29.85F
KILLEEN        SUNNY     79  46  31 SW13G24   29.82F
KILLEEN-SKYLRK SUNNY     80  47  31 S14       29.84F
FORT HOOD      SUNNY     80  46  30 S15       29.80F
GATESVILLE     SUNNY     81  46  30 SW14G24   29.85F
HAMILTON       SUNNY     81  38  21 SW21G32   29.84F
LAMPASAS       SUNNY     78  47  33 SW13G22   29.84F
$$

TXZ095>097-106>112-122>126-135>138-148>153-164>167-242200-
EAST TEXAS

CITY           SKY/WX    TMP DP  RH WIND       PRES   REMARKS
PARIS          CLOUDY    59  55  88 S15       29.84F
SULPHUR SPRNGS CLOUDY    58  57  97 S5        29.87F
MOUNT PLEASANT CLOUDY    59  59 100 W6        29.90F
GILMER         RAIN      58  57  96 W5        29.89R
MINEOLA        CLOUDY    59  59 100 SE5       29.86F
TYLER          LGT RAIN  61  61 100 S8        29.87F FOG
LONGVIEW       CLOUDY    77  59  53 S17G29    29.83F
MARSHALL       CLOUDY    75  59  57 SE10G21   29.87F
ATHENS         CLOUDY    63  63 100 S3        29.85F
PALESTINE      HVY RAIN  67  67  98 S8G18     29.89F
JACKSONVILLE   CLOUDY    74  60  61 S17G30    29.88F
HENDERSON      LGT RAIN  76  58  53 S14G25    29.87F
CENTER         PTCLDY    83  61  47 SE25G40   29.92F
NACOGDOCHES    CLOUDY    77  57  50 S22G30    29.87F
LUFKIN         LGT RAIN  78  58  49 S23G33    29.90
$$

SUPPLEMENTAL OBSERVATIONS (CENTRAL)

CITY           SKY/WX    TMP DP  RH WIND       PRES   REMARKS
DENISON DAM      N/A     70  46  43 S8          N/A
CADDO GRASSLND   N/A     68  59  73 S14         N/A
PAT MAYSE LAKE   N/A     61  59  94 SE17        N/A
GREENVILLE       N/A     63  57  82 S9G17       N/A
CEDAR HILL       N/A     75  48  38 S10G20      N/A
ATHENS           N/A     64  61  88 S5          N/A
LAKE LIMESTONE   N/A     72  66  83 S12G20      N/A
MCGREGOR         N/A     77  59  53 S16         N/A
TEMPLE           N/A     79  55  44 SW7G17      N/A
$$

SUPPLEMENTAL OBSERVATIONS (WEST)

CITY           SKY/WX    TMP DP  RH WIND       PRES   REMARKS
MILLERS CREEK    N/A     75  32  20 W25G38      N/A
POSSUM KINGDOM   N/A     81  30  16 SW20G31     N/A
LBJ GRASSLAND    N/A     82  28  14 S16G28      N/A
GRANBURY         N/A     82  32  16 SW23G35     N/A
COMANCHE         N/A     79  32  18 W23G35      N/A
HAMBY            N/A     77  32  19 SW28G36     N/A
IVIE RESERVOIR   N/A     79  32  18 W21G36      N/A
COLORADO BEND    N/A     81  36  19 W14G24      N/A
$$

SUPPLEMENTAL OBSERVATIONS (EAST)

CITY           SKY/WX    TMP DP  RH WIND       PRES   REMARKS
CLARKSVILLE      N/A     59  57  94 S7          N/A
TEXARKANA        N/A     75  55  50 SE12G26     N/A
LINDEN           N/A     72  59  64 S6G21       N/A
CADDO LAKE       N/A    N/A N/A N/A SE9G28      N/A
GILMER           N/A     61  57  88 W5G22       N/A
HENDERSON        N/A     75  57  53 S17G30      N/A
LUFKIN           N/A     79  57  47 MISG        N/A
N SABINE NF      N/A     81  59  47 MISG        N/A
S SABINE NF      N/A     81  59  47 W8G16       N/A
$$

SUPPLEMENTAL OBSERVATIONS ARE A COLLECTION OF AUTOMATED INSTRUMENTS
THAT ARE MAINTAINED BY A VARIETY OF FEDERAL AND STATE AGENCIES.
CERTAIN ELEMENTS...SUCH AS HUMIDITY VALUES AND SUSTAINED WIND
SPEEDS...MAY BE APPROXIMATED.





USA.gov is the U.S. government's official web portal to all federal, state and local government web resources and services.